TimeEDT,TemperatureF,Dew PointF,Humidity,Sea Level PressureIn,VisibilityMPH,Wind Direction,Wind SpeedMPH,Gust SpeedMPH,PrecipitationIn,Events,Conditions,WindDirDegrees,DateUTC
12:23 AM,73.4,68.0,83,29.85,10.0,SSE,11.5,-,N/A,,Light Drizzle,160,2013-05-03 04:23:00
12:50 AM,73.4,69.8,88,29.84,10.0,SSE,12.7,-,N/A,,Scattered Clouds,150,2013-05-03 04:50:00
12:58 AM,73.2,68.2,84,29.86,10.0,SSE,15.0,-,0.00,,Scattered Clouds,160,2013-05-03 04:58:00
1:58 AM,73.2,69.4,88,29.83,10.0,SE,15.0,-,N/A,,Partly Cloudy,140,2013-05-03 05:58:00
2:01 AM,73.4,69.8,88,29.81,10.0,SE,13.8,-,N/A,,Light Drizzle,140,2013-05-03 06:01:00
2:08 AM,73.4,69.8,88,29.81,10.0,SSE,12.7,-,N/A,,Partly Cloudy,160,2013-05-03 06:08:00
2:28 AM,71.6,68.0,88,29.81,10.0,South,2.3,-,N/A,,Mostly Cloudy,190,2013-05-03 06:28:00
2:32 AM,71.6,68.0,88,29.81,10.0,SW,2.3,-,N/A,,Light Drizzle,230,2013-05-03 06:32:00
2:37 AM,71.6,68.0,88,29.81,6.0,SSW,10.4,-,N/A,Rain,Rain,200,2013-05-03 06:37:00
2:42 AM,71.6,68.0,88,29.80,4.0,South,8.1,-,N/A,Rain,Heavy Rain,180,2013-05-03 06:42:00
2:52 AM,71.6,68.0,88,29.80,8.0,South,8.1,-,N/A,Rain,Light Rain,190,2013-05-03 06:52:00
2:57 AM,71.6,68.0,88,29.80,10.0,SSW,8.1,-,N/A,,Mostly Cloudy,200,2013-05-03 06:57:00
2:58 AM,72.0,68.7,89,29.81,10.0,SSW,6.9,-,0.06,,Mostly Cloudy,200,2013-05-03 06:58:00
3:10 AM,71.6,69.8,94,29.79,10.0,SW,5.8,-,N/A,,Light Drizzle,220,2013-05-03 07:10:00
3:15 AM,71.6,68.0,88,29.79,10.0,SW,5.8,-,N/A,,Light Drizzle,230,2013-05-03 07:15:00
3:21 AM,71.6,68.0,88,29.79,10.0,West,6.9,-,N/A,,Scattered Clouds,270,2013-05-03 07:21:00
3:31 AM,71.6,69.8,94,29.79,10.0,WNW,8.1,-,N/A,,Mostly Cloudy,290,2013-05-03 07:31:00
3:41 AM,71.6,68.0,88,29.79,10.0,WNW,9.2,-,N/A,,Mostly Cloudy,300,2013-05-03 07:41:00
3:58 AM,71.1,68.5,92,29.81,10.0,North,10.4,-,0.00,,Mostly Cloudy,350,2013-05-03 07:58:00
4:08 AM,69.8,68.0,94,29.79,10.0,North,6.9,-,N/A,,Mostly Cloudy,360,2013-05-03 08:08:00
4:28 AM,69.8,68.0,94,29.79,10.0,NNE,6.9,-,N/A,,Mostly Cloudy,30,2013-05-03 08:28:00
4:33 AM,69.8,68.0,94,29.79,10.0,NNE,5.8,-,N/A,,Mostly Cloudy,20,2013-05-03 08:33:00
4:53 AM,69.8,68.0,94,29.78,10.0,NNW,3.5,-,N/A,,Scattered Clouds,340,2013-05-03 08:53:00
4:58 AM,70.5,68.4,93,29.80,10.0,North,3.5,-,N/A,,Partly Cloudy,360,2013-05-03 08:58:00
5:08 AM,69.8,68.0,94,29.78,9.0,North,3.5,-,N/A,,Partly Cloudy,10,2013-05-03 09:08:00
5:18 AM,69.8,68.0,94,29.78,10.0,North,4.6,-,N/A,,Clear,360,2013-05-03 09:18:00
5:38 AM,71.6,68.0,88,29.78,10.0,ENE,9.2,-,N/A,,Mostly Cloudy,60,2013-05-03 09:38:00
5:58 AM,71.1,68.4,91,29.80,10.0,SE,10.4,-,N/A,,Mostly Cloudy,140,2013-05-03 09:58:00
6:02 AM,71.6,68.0,88,29.78,10.0,SE,12.7,-,N/A,,Light Drizzle,130,2013-05-03 10:02:00
6:07 AM,71.6,68.0,88,29.79,7.0,ESE,10.4,-,N/A,Rain,Light Rain,120,2013-05-03 10:07:00
6:12 AM,71.6,69.8,94,29.79,3.0,ESE,9.2,-,N/A,Rain,Light Rain,120,2013-05-03 10:12:00
6:17 AM,71.6,68.0,88,29.79,2.5,ESE,6.9,-,N/A,Rain,Rain,110,2013-05-03 10:17:00
6:38 AM,69.8,68.0,94,29.79,1.8,West,3.5,-,N/A,Rain,Heavy Rain,280,2013-05-03 10:38:00
6:43 AM,69.8,68.0,94,29.79,1.8,NW,2.3,-,N/A,Rain,Heavy Rain,310,2013-05-03 10:43:00
6:53 AM,69.8,68.0,94,29.79,1.5,WNW,1.2,-,N/A,Rain,Heavy Rain,300,2013-05-03 10:53:00
6:58 AM,70.2,68.7,95,29.81,1.5,NNW,2.3,-,0.46,Rain,Heavy Rain,340,2013-05-03 10:58:00
7:03 AM,69.8,68.0,94,29.79,1.8,ENE,2.3,-,N/A,Rain,Light Rain,70,2013-05-03 11:03:00
7:08 AM,69.8,69.8,100,29.80,2.5,East,2.3,-,N/A,Rain,Light Rain,100,2013-05-03 11:08:00
7:13 AM,69.8,69.8,100,29.80,1.2,ESE,9.2,-,N/A,Rain,Heavy Rain,120,2013-05-03 11:13:00
7:17 AM,69.8,69.8,100,29.79,0.8,SSE,9.2,-,N/A,Rain-Thunderstorm,Heavy Thunderstorms and Rain,150,2013-05-03 11:17:00
7:22 AM,69.8,68.0,94,29.79,0.8,ESE,13.8,-,N/A,Rain-Thunderstorm,Heavy Thunderstorms and Rain,120,2013-05-03 11:22:00
7:26 AM,69.8,68.0,94,29.79,0.8,East,12.7,-,N/A,Rain-Thunderstorm,Heavy Thunderstorms and Rain,100,2013-05-03 11:26:00
7:32 AM,69.8,68.0,94,29.80,1.0,ENE,6.9,-,N/A,Rain,Light Rain,70,2013-05-03 11:32:00
7:37 AM,69.8,68.0,94,29.80,1.2,NE,5.8,-,N/A,Rain,Heavy Rain,50,2013-05-03 11:37:00
7:38 AM,69.8,68.0,94,29.80,1.2,Variable,4.6,-,N/A,Rain-Thunderstorm,Heavy Thunderstorms and Rain,0,2013-05-03 11:38:00
7:43 AM,69.8,68.0,94,29.80,1.5,ESE,3.5,-,N/A,Rain-Thunderstorm,Thunderstorms and Rain,120,2013-05-03 11:43:00
7:53 AM,69.8,68.0,94,29.79,1.0,Variable,4.6,-,N/A,Rain,Heavy Rain,0,2013-05-03 11:53:00
7:58 AM,69.8,68.0,94,29.81,1.5,North,4.6,-,0.81,Rain,Heavy Rain,360,2013-05-03 11:58:00
8:03 AM,69.8,68.0,94,29.79,3.0,NE,6.9,-,N/A,Rain,Light Rain,40,2013-05-03 12:03:00
8:18 AM,69.8,68.0,94,29.79,2.0,Variable,1.2,-,N/A,Rain,Rain,0,2013-05-03 12:18:00
8:23 AM,69.8,68.0,94,29.79,1.2,ENE,5.8,-,N/A,Rain,Light Rain,70,2013-05-03 12:23:00
8:33 AM,69.8,68.0,94,29.79,9.0,Calm,Calm,-,N/A,Rain,Light Rain,20,2013-05-03 12:33:00
8:44 AM,69.8,68.0,94,29.78,7.0,NW,6.9,-,N/A,,Overcast,320,2013-05-03 12:44:00
8:58 AM,70.2,68.4,94,29.80,7.0,NNW,8.1,-,0.10,,Mostly Cloudy,340,2013-05-03 12:58:00
9:58 AM,70.9,68.7,93,29.80,10.0,NNW,12.7,-,N/A,,Partly Cloudy,330,2013-05-03 13:58:00
10:58 AM,74.3,69.3,84,29.81,10.0,West,6.9,-,N/A,,Clear,270,2013-05-03 14:58:00
11:58 AM,78.6,67.3,68,29.78,10.0,West,13.8,-,0.01,,Partly Cloudy,270,2013-05-03 15:58:00
12:58 PM,80.4,66.0,61,29.77,10.0,NW,13.8,-,N/A,,Mostly Cloudy,310,2013-05-03 16:58:00
1:08 PM,78.8,69.8,74,29.75,10.0,NNW,11.5,-,N/A,,Mostly Cloudy,340,2013-05-03 17:08:00
1:58 PM,79.2,69.1,71,29.75,10.0,NW,16.1,23.0,N/A,,Clear,310,2013-05-03 17:58:00
2:58 PM,81.5,68.4,64,29.72,10.0,WNW,18.4,-,N/A,,Clear,300,2013-05-03 18:58:00
3:06 PM,78.8,69.8,74,29.69,10.0,NNW,13.8,-,N/A,,Clear,340,2013-05-03 19:06:00
3:58 PM,78.3,68.5,72,29.68,10.0,WNW,8.1,-,N/A,,Clear,300,2013-05-03 19:58:00
4:58 PM,81.0,66.9,62,29.67,10.0,West,18.4,-,N/A,,Partly Cloudy,270,2013-05-03 20:58:00
5:58 PM,79.0,68.2,69,29.65,10.0,SW,6.9,-,N/A,,Clear,220,2013-05-03 21:58:00
6:58 PM,75.7,69.3,80,29.68,10.0,WSW,12.7,-,N/A,,Partly Cloudy,250,2013-05-03 22:58:00
7:13 PM,75.2,69.8,83,29.67,10.0,West,12.7,-,N/A,,Mostly Cloudy,270,2013-05-03 23:13:00
7:48 PM,73.4,68.0,83,29.67,10.0,SSW,11.5,-,N/A,,Mostly Cloudy,210,2013-05-03 23:48:00
7:58 PM,73.2,68.2,84,29.68,10.0,SSW,12.7,-,N/A,,Mostly Cloudy,210,2013-05-03 23:58:00
8:28 PM,73.4,68.0,83,29.68,10.0,SSW,15.0,-,N/A,,Mostly Cloudy,210,2013-05-04 00:28:00
8:38 PM,71.6,68.0,88,29.66,10.0,SSW,16.1,-,N/A,,Mostly Cloudy,200,2013-05-04 00:38:00
8:58 PM,71.8,67.8,87,29.67,10.0,SSW,20.7,-,N/A,,Clear,200,2013-05-04 00:58:00
9:58 PM,71.4,66.9,86,29.72,10.0,SW,16.1,-,N/A,,Scattered Clouds,230,2013-05-04 01:58:00
10:08 PM,71.6,66.2,83,29.70,10.0,SW,13.8,-,N/A,,Mostly Cloudy,230,2013-05-04 02:08:00
10:58 PM,71.2,66.9,86,29.73,10.0,SSW,10.4,-,N/A,,Overcast,200,2013-05-04 02:58:00
11:33 PM,71.6,68.0,88,29.71,10.0,South,5.8,-,N/A,,Overcast,180,2013-05-04 03:33:00
11:43 PM,69.8,68.0,94,29.72,10.0,South,8.1,-,N/A,,Drizzle,180,2013-05-04 03:43:00
11:55 PM,69.8,68.0,94,29.72,10.0,South,6.9,-,N/A,,Overcast,170,2013-05-04 03:55:00
11:58 PM,70.5,68.2,92,29.73,10.0,South,8.1,-,0.00,,Overcast,170,2013-05-04 03:58:00